This is the latest recevied weather packets stored in our database for station/object R1CBW-13. If no packets are shown the sender has not sent any weather packets the latest 10 day(s).
| Time | Temp. | Humidity | Pressure | Rain* | Wind** | Luminosity | Snow |
|---|---|---|---|---|---|---|---|
| 1777270986 | 0.56° C | 96% | 1002.7 hPa | 0 mm | - | - | - |
| 1777270926 | 1.11° C | 96% | 1002.7 hPa | 0 mm | - | - | - |
| 1777270866 | 0.56° C | 97% | 1002.7 hPa | 0 mm | - | - | - |
| 1777270807 | 0.56° C | 95% | 1002.6 hPa | 0 mm | - | - | - |
| 1777270747 | 1.11° C | 96% | 1002.7 hPa | 0 mm | - | - | - |
| 1777270686 | 1.11° C | 97% | 1002.6 hPa | 0 mm | - | - | - |
| 1777270626 | 0° C | 97% | 1002.8 hPa | 0 mm | - | - | - |
| 1777270566 | 0.56° C | 96% | 1002.6 hPa | 0 mm | - | - | - |
| 1777270506 | 0.56° C | 97% | 1002.7 hPa | 0 mm | - | - | - |
| 1777270446 | 0.56° C | 97% | 1002.8 hPa | 0 mm | - | - | - |
| 1777270386 | 0° C | 97% | 1002.7 hPa | 0 mm | - | - | - |
| 1777270326 | 0.56° C | 97% | 1002.6 hPa | 0 mm | - | - | - |
| 1777270266 | 1.11° C | 98% | 1002.6 hPa | 0 mm | - | - | - |
| 1777270206 | 0.56° C | 99% | 1002.5 hPa | 0 mm | - | - | - |
| 1777270146 | 0.56° C | 99% | 1002.7 hPa | 0 mm | - | - | - |
| 1777270086 | 0.56° C | 10% | - | 0 mm | - | - | - |
| 1777270026 | 0° C | 10% | - | 0 mm | - | - | - |
| 1777269966 | 0.56° C | 10% | - | 0 mm | - | - | - |
| 1777269906 | 0.56° C | 10% | - | 0 mm | - | - | - |
| 1777269846 | 0° C | 10% | - | 0 mm | - | - | - |
| 1777269786 | 1.11° C | 10% | - | 0 mm | - | - | - |
| 1777269726 | 0° C | 10% | - | 0 mm | - | - | - |
| 1777269666 | 0° C | 10% | - | 0 mm | - | - | - |
| 1777269606 | 0.56° C | 10% | - | 0 mm | - | - | - |
| 1777269546 | 0° C | 10% | - | 0 mm | - | - | - |
* Rain latest hour (hover to see other rain measurements)
** Current wind speed in m/s (hover to see current wind gust speed)